Location: Observatoire
(46.1952°N, 5.3391°E)
Time: 06:03:06
(UTC+01:00)

Explorer 7 - Pass Details

Date: 26 February 2026
Orbit: 430 x 542 km, 50.2° (Epoch: 5 March)

Event Time Altitude Azimuth Distance (km) Brightness Sun altitude
Rises 15:40:59 0° 285° (WNW) 2,424 10.5 23.5°
Reaches altitude 10° 15:43:09 10° 293° (WNW) 1,567 9.6 23.2°
Maximum altitude 15:46:32 43° 6° (N) 646 7.1 22.8°
Drops below altitude 10° 15:50:02 10° 80° (E) 1,619 8.8 22.3°
Sets 15:52:18 0° 87° (E) 2,517 9.7 22.0°
